VA7NEZ Weather Reports


time (UTC)temp
F
wind
direction
speed
knots
gust
knots
rain 1hr
in
rain 24hr
in
rain mn
in
humidity
%
barometer
mb
20260504190056 73 299 0.0 1.7 0.00 0.00 0.00 31 1011.3
20260504185156 73 288 0.9 1.7 0.00 0.00 0.00 31 1011.1
20260504184326 72 289 0.0 0.9 0.00 0.00 0.00 32 1011.2
20260504183441 32 293 0.0 1.7 0.00 0.00 0.00 100 1011.5
20260504181601 69 287 0.0 1.7 0.00 0.00 0.00 36 1011.6
20260504180637 32 275 0.9 5.2 0.00 0.00 0.00 100 1011.6
20260504175751 69 174 0.0 0.9 0.00 0.00 0.00 40 1011.6
20260504174856 68 262 0.9 2.6 0.00 0.00 0.00 40 1011.6
20260504172030 32 299 0.0 2.6 0.00 0.00 0.00 100 1011.8
20260504141133 50 0 0.0 0.0 0.00 0.00 0.00 68 1012.2
20260504140207 32 0 0.0 0.0 0.00 0.00 0.00 100 1012.3
20260504100402 50 0 0.0 0.0 0.00 0.00 0.00 65 1011.4
20260504081407 53 0 0.0 0.0 0.00 0.00 0.00 61 1011.0
20260504045127 64 3 0.0 0.9 0.00 0.00 0.00 48 1010.4
20260504044202 32 3 0.0 0.9 0.00 0.00 0.00 100 1010.2
20260504043342 65 0 0.0 0.0 0.00 0.00 0.00 51 1010.2
20260504042432 66 0 0.0 0.0 0.00 0.00 0.00 45 1010.2
20260504041552 67 279 0.0 0.9 0.00 0.00 0.00 43 1010.2
20260504040727 67 0 0.0 0.0 0.00 0.00 0.00 43 1010.0
20260504035912 69 0 0.0 0.0 0.00 0.00 0.00 40 1010.0
20260504034936 70 0 0.0 0.0 0.00 0.00 0.00 39 1009.8
20260504033122 72 278 0.0 0.9 0.00 0.00 0.00 36 1009.8
20260504032312 73 0 0.0 0.0 0.00 0.00 0.00 35 1009.8
20260504031417 74 0 0.0 0.0 0.00 0.00 0.00 35 1009.7
20260504030517 75 0 0.0 0.0 0.00 0.00 0.00 33 1009.9
20260504025708 76 0 0.0 0.0 0.00 0.00 0.00 32 1009.7
20260504024017 78 0 0.0 0.0 0.00 0.00 0.00 28 1009.6
20260504023217 79 0 0.0 0.0 0.00 0.00 0.00 27 1009.7
20260504022256 80 288 0.0 0.9 0.00 0.00 0.00 26 1009.7
20260504020422 84 277 0.0 0.9 0.00 0.00 0.00 22 1009.8
20260504015437 84 290 0.9 1.7 0.00 0.00 0.00 22 1009.7
20260504014513 84 281 0.0 0.9 0.00 0.00 0.00 23 1009.6
20260504013622 83 0 0.0 0.0 0.00 0.00 0.00 22 1009.8
20260504012705 82 293 0.0 0.9 0.00 0.00 0.00 24 1009.9
20260504011832 84 272 0.0 0.9 0.00 0.00 0.00 23 1009.9
20260504011027 87 283 0.0 1.7 0.00 0.00 0.00 21 1010.1
20260504010052 86 298 0.0 0.9 0.00 0.00 0.00 22 1010.1
20260504005220 86 272 0.0 0.9 0.00 0.00 0.00 21 1010.2
20260504003242 32 214 0.0 0.9 0.00 0.00 0.00 100 1010.5
20260504000737 85 304 0.9 2.6 0.00 0.00 0.00 20 1010.7
20260503235935 88 327 0.9 3.5 0.00 0.00 0.00 18 1010.7
20260503234947 85 296 0.9 1.7 0.00 0.00 0.00 21 1010.8
20260503234117 85 298 0.0 0.9 0.00 0.00 0.00 21 1011.0
20260503233132 87 281 0.0 0.9 0.00 0.00 0.00 21 1010.9
20260503232157 32 286 0.9 1.7 0.00 0.00 0.00 100 1011.2
20260503230327 93 272 1.7 2.6 0.00 0.00 0.00 16 1011.5
20260503225447 84 295 1.7 2.6 0.00 0.00 0.00 21 1011.5
20260503224517 84 261 0.9 1.7 0.00 0.00 0.00 21 1011.7
20260503223537 84 295 0.9 2.6 0.00 0.00 0.00 22 1011.7
20260503222602 90 285 0.9 1.7 0.00 0.00 0.00 20 1011.8
20260503221623 100 299 0.9 2.6 0.00 0.00 0.00 15 1012.1
20260503220632 100 288 0.9 2.6 0.00 0.00 0.00 15 1012.0
20260503214822 80 295 0.0 1.7 0.00 0.00 0.00 24 1012.4
20260503214022 80 301 1.7 3.5 0.00 0.00 0.00 24 1012.5
20260503213127 79 287 0.0 2.6 0.00 0.00 0.00 24 1012.7
20260503205727 32 121 0.0 1.7 0.00 0.00 0.00 100 1013.2
20260503203942 76 198 0.9 1.7 0.00 0.00 0.00 26 1013.5
20260503202216 74 270 0.9 1.7 0.00 0.00 0.00 26 1013.8
20260503201341 73 290 1.7 2.6 0.00 0.00 0.00 29 1013.9
20260503194707 71 282 0.0 0.9 0.00 0.00 0.00 33 1014.3
20260503192901 69 222 0.0 0.9 0.00 0.00 0.00 33 1014.6
20260503192017 69 299 1.7 2.6 0.00 0.00 0.00 34 1014.9
20260503191017 68 93 0.0 0.9 0.00 0.00 0.00 35 1015.1